Regional Weather Roundup
Issued by NWS

Home | Current Version | Previous Version | Text Only | Print | Product List | Glossary On
Versions: 1 2 3 4 5 6 7 8 9 10 11 12 13 14 15 16 17 18 19 20 21 22 23 24 25 26 27 28 29 30 31 32 33 34 35 36 37 38 39 40 41 42 43 44 45 46 47 48 49 50
270
ASUS45 KTFX 231510
RWRMT
MONTANA REGIONAL WEATHER ROUNDUP
NATIONAL WEATHER SERVICE GREAT FALLS MT
900 AM MDT TUE MAY 23 2017

NOTE: "FAIR" INDICATES FEW OR NO CLOUDS BELOW 12000 FEET WITH NO
SIGNIFICANT WEATHER AND/OR OBSTRUCTIONS TO VISIBILITY.

MTZ001>007-043-231600-
WEST OF THE DIVIDE

CITY           SKY/WX    TMP DP  RH WIND       PRES   REMARKS
KALISPELL      MOSUNNY   59  44  57 NE8       30.10F
MISSOULA       SUNNY     54  43  66 CALM      30.16F
BUTTE          CLOUDY    50  35  56 CALM      30.24F
MULLAN PASS    SUNNY     57  36  45 CALM      30.20S
ANACONDA         N/A     57  39  51 SE9       30.20F
DEER LODGE       N/A     54  41  62 CALM      30.22F
EUREKA           N/A     55  43  62 CALM      30.09F
HAMILTON         N/A     59  39  47 SE3       30.16F
RONAN            N/A     64  46  52 CALM      30.13F
$$

MTZ008-052>055-231600-
SOUTHWEST MONTANA

CITY           SKY/WX    TMP DP  RH WIND       PRES   REMARKS
BOZEMAN        SUNNY     55  41  59 CALM      30.21F
DILLON         CLOUDY    53  40  61 SW7       30.23F
W YELLOWSTONE  SUNNY     43  34  70 CALM      30.31F
ENNIS          SUNNY     54  37  54 CALM      30.28F
THREE FORKS      N/A     54  42  63 CALM      30.18S
$$

MTZ009-010-012-014-046-048-049-054-231600-
EAST SLOPES AND CENTRAL MONTANA

CITY           SKY/WX    TMP DP  RH WIND       PRES   REMARKS
CUT BANK       PTSUNNY   55  36  48 SE5       30.06F
GREAT FALLS    SUNNY     61  41  47 S12       30.09F
HELENA         CLOUDY    55  43  63 CALM      30.17F
CHOTEAU          N/A     63  45  51 S8G15     30.10F
$$

MTZ011-013-016-021-045-047-050-051-231600-
NORTH CENTRAL MONTANA

CITY           SKY/WX    TMP DP  RH WIND       PRES   REMARKS
HAVRE          MOSUNNY   61  38  42 CALM      30.09F
LEWISTOWN      SUNNY     57  39  51 E8        30.15F
N BAR RANCH      N/A     57  34  41 S15       30.19F
CHINOOK          N/A     55  39  54 E7        30.10F
FORT BENTON      N/A     57  39  51 MISG      30.11F
$$

MTZ017>020-022>027-061-062-231600-
NORTHEAST MONTANA

CITY           SKY/WX    TMP DP  RH WIND       PRES   REMARKS
GLASGOW        MOSUNNY   58  37  45 CALM      30.16F
JORDAN           N/A     59  38  45 CALM      30.16F
SIDNEY         SUNNY     58  38  47 S6        30.17F
WOLF POINT     SUNNY     57  35  43 SW3       30.17S
MALTA          SUNNY     55  39  54 CALM      30.14F
PLENTYWOOD       N/A     57  36  44 S3        30.16S
POPLAR           N/A     55  36  47 CALM      30.17F
$$

MTZ028>42-056>058-231600-
SOUTHCENTRAL AND SOUTHEAST MONTANA

CITY           SKY/WX    TMP DP  RH WIND       PRES   REMARKS
BAKER          SUNNY     54  34  46 CALM      30.18S
BILLINGS       MOSUNNY   51  41  68 S10       30.19F
LIVINGSTON     SUNNY     55  41  59 CALM      30.19F
MILES CITY     SUNNY     57  39  51 S3        30.19S
BIG TIMBER     SUNNY     52  43  71 E5        30.22F
FORSYTH          N/A     54  37  54 CALM      30.19F
LAUREL           N/A     52  40  63 S6        30.16F
ROUNDUP          N/A     53  36  52 S6        30.08F
$$

REGIONAL REPORTS...DAKOTAS

CITY           SKY/WX    TMP DP  RH WIND       PRES   REMARKS
WILLISTON      SUNNY     59  38  45 VRB3      30.17F
MINOT          SUNNY     59  37  44 N12       30.14F
DICKINSON      SUNNY     56  33  42 N14G23    30.14S
BEACH            N/A     57  32  38 CALM      30.20F
TIOGA            N/A     57  32  38 NE8G15    30.17F
WATFORD CITY     N/A     57  36  44 VRB5      30.16F
BISMARCK       SUNNY     58  37  45 N20G33    30.08S
GRAND FORKS    CLOUDY    53  45  74 N17       30.00S
FARGO          CLOUDY    49  47  93 N15       29.95R
BUFFALO SD       N/A     55  36  48 VRB6      30.10S
RAPID CITY     SUNNY     53  36  52 N16       30.15S
$$

REGIONAL REPORTS...WYOMING/IDAHO/WASHINGTON

CITY           SKY/WX    TMP DP  RH WIND       PRES   REMARKS
GILLETTE       SUNNY     53  39  59 N10       30.20F
SHERIDAN       SUNNY     58  39  49 N6        30.22S
BUFFALO WY     SUNNY     55  33  43 N13       30.23F
CODY           SUNNY     56  36  47 CALM      30.24S
YELLOWSTONE LA   N/A     36  31  82 CALM      30.36S
IDAHO FALLS    MOSUNNY   57  42  57 N10       30.24R
SALMON         CLOUDY    52  41  66 N3        30.21F
BOISE          SUNNY     66  41  40 SE10      30.13R
SPOKANE        MOSUNNY   65  47  52 SE7       30.05F
$$

REGIONAL REPORTS...ALBERTA

CITY           SKY/WX    TMP DP  RH WIND       PRES   REMARKS
EDMONTON       PTSUNNY   66  46  48 SW5       29.81F
CALGARY        PTSUNNY   64  37  36 SW6       29.95F
LETHBRIDGE     PTSUNNY   66  43  42 SW16      29.97F
MEDICINE HAT   PTSUNNY   66  37  34 S17G26    30.00F
WATERTON GATE    N/A     64  37  36 SW21G26     N/A
CARDSTON         N/A     70  43  37 SW8         N/A
$$

REGIONAL REPORTS...SASKATCHEWAN

CITY           SKY/WX    TMP DP  RH WIND       PRES   REMARKS
REGINA         MOSUNNY   63  34  34 SE9       30.13F
SASKATOON      PTSUNNY   66  37  34 S14       30.06F
ROCKGLEN         N/A     61  28  29 W3          N/A
$$




USA.gov is the U.S. government's official web portal to all federal, state and local government web resources and services.